User: anonymous   Login
Location: Brighton Point
(40.6144°N, 111.7933°W)
Time: 14:09:17
(UTC+00:00)
Language:

Hubble Space Telescope - Orbit

View from above orbital plane
View from above orbital plane
View from above satellite
View from above satellite

Ground track
Ground track

The orbit data is extracted from the following two-line orbital elements,

1 20580U 90037B   21100.83286595  .00000503  00000-0  19462-4 0  9998
2 20580  28.4689 152.4935 0002895  57.6175 105.8138 15.09607967500852
Epoch (UTC): 10 April 2021 19:59:19
Eccentricity: 0.0002895
inclination: 28.4689°
perigee height: 535 km
apogee height: 539 km
right ascension of ascending node: 152.4935°
argument of perigee: 57.6175°
revolutions per day: 15.09607967
mean anomaly at epoch: 105.8138°
orbit number at epoch: 50085

The dashed part of the orbit path shows where the satellite is in the earth's shadow,  

DLR